Location: Brabourne
(51.1333°N, 1.0000°E)
Time: 14:09:46
(UTC+00:00)

SL-16 R/B - Visible Passes

Search period start: 22 October 2021 00:00
Search period end: 01 November 2021 00:00
Orbit: 840 x 850 km, 71.0° (Epoch: 21 October)

Date Brightness Start Highest point End Pass type
(mag) Time Alt. Az. Time Alt. Az. Time Alt. Az.
22 Oct 4.9 01:58:58 11° N 01:58:58 11° N 01:59:52 10° N visible
22 Oct 4.8 03:43:29 10° N 03:44:39 11° N 03:45:48 10° NNE visible
22 Oct 4.3 05:26:40 10° NNW 05:31:07 23° NE 05:35:33 10° E visible
23 Oct 4.9 01:45:14 11° N 01:45:14 11° N 01:45:46 10° N visible
23 Oct 4.8 03:29:24 10° N 03:30:28 10° N 03:31:33 10° NNE visible
23 Oct 4.3 05:12:33 10° NNW 05:16:58 22° NE 05:21:22 10° E visible
24 Oct 5.0 01:31:30 10° N 01:31:30 10° N 01:31:40 10° N visible
24 Oct 4.8 03:15:18 10° N 03:16:18 10° N 03:17:18 10° NNE visible
24 Oct 4.3 04:58:27 10° NNW 05:02:49 22° NE 05:07:10 10° E visible
25 Oct 4.9 03:01:13 10° N 03:02:08 10° N 03:03:03 10° NNE visible
25 Oct 4.4 04:44:20 10° NNW 04:48:40 21° NE 04:52:58 10° E visible
26 Oct 4.9 02:47:08 10° N 02:47:57 10° N 02:48:47 10° NNE visible
26 Oct 4.4 04:30:14 10° NNW 04:34:30 21° NE 04:38:47 10° E visible
27 Oct 4.9 02:33:04 10° N 02:33:47 10° N 02:34:31 10° NNE visible
27 Oct 4.4 04:16:07 10° NNW 04:20:22 21° NE 04:24:34 10° E visible
27 Oct 2.5 05:59:47 10° NNW 06:05:31 72° ENE 06:11:12 10° SE visible
28 Oct 4.9 02:18:59 10° N 02:19:37 10° N 02:20:15 10° NNE visible
28 Oct 4.4 04:02:02 10° NNW 04:06:12 20° NE 04:10:23 10° E visible
28 Oct 2.6 05:45:40 10° NNW 05:51:24 71° ENE 05:57:04 10° SE visible
29 Oct 5.0 02:05:02 10° N 02:05:27 10° N 02:05:57 10° NNE visible
29 Oct 4.5 03:47:55 10° NNW 03:52:04 20° NE 03:56:11 10° E visible
29 Oct 2.6 05:31:33 10° NNW 05:37:16 69° ENE 05:42:56 10° SE visible
30 Oct 5.0 01:51:29 10° N 01:51:29 10° N 01:51:39 10° N visible
30 Oct 4.5 03:33:49 10° NNW 03:37:54 20° NNE 03:41:59 10° E visible
30 Oct 2.6 05:17:26 10° NNW 05:23:09 67° ENE 05:28:49 10° SE visible
31 Oct 4.5 03:19:53 11° N 03:23:45 19° NNE 03:27:47 10° ENE visible
31 Oct 2.6 05:03:19 10° NNW 05:09:01 65° NE 05:14:41 10° SE visible
